User: anonymous   Login
Location: Unspecified
(40.7945°N, 111.1337°W)
Time: 03:48:22
(UTC-06:00)
Language:

Cosmos 1674 - Orbit

View from above orbital plane
View from above orbital plane
View from above satellite
View from above satellite

Ground track
Ground track

The orbit data is extracted from the following two-line orbital elements,

1 15944U 85069A   19113.49898950 +.00000509 +00000-0 +22472-4 0  9993
2 15944 082.5056 279.8187 0015709 304.0742 055.9001 15.19348219840257
Epoch (UTC): 23 April 2019 11:58:32
Eccentricity: 0.0015709
inclination: 82.5056°
perigee height: 497 km
apogee height: 518 km
right ascension of ascending node: 279.8187°
argument of perigee: 304.0742°
revolutions per day: 15.19348219
mean anomaly at epoch: 55.9001°
orbit number at epoch: 84025

The dashed part of the orbit path shows where the satellite is in the earth's shadow,  

DLR